Fredericksburg, TX

8:49 AM CDT on June 24, 2017 (GMT -0500)
Fredericksburg

Weather History for KT82 - June, 2013

Change the Weather History Date:

Saturday, June 1, 2013

  Actual Average (KSAT) Record (KSAT)
Temperature  
Mean Temperature 82 °F -  
Max Temperature 92 °F 88 °F 101 °F (1887)
Min Temperature 72 °F 68 °F 54 °F (1964)
Cooling Degree Days 17    
Growing Degree Days 32 (Base 50)    
Moisture  
Dew Point 69 °F    
Average Humidity 68    
Maximum Humidity 86    
Minimum Humidity 43    
Precipitation  
Precipitation 0.00 in - - ()
Sea Level Pressure  
Sea Level Pressure 29.87 in    
Wind  
Wind Speed 11 mph (South)    
Max Wind Speed 18 mph    
Max Gust Speed 26 mph    
Visibility 10 miles    
Events      
Averages and records for this station are not official NWS values.
T = Trace of Precipitation, MM = Missing Value Source: NWS Daily Summary

Daily Weather History Graph

Daily Weather History Graph

Search for Another Location

Airport or City:

Trip Planner

Search our weather history database for the weather conditions in past years. The results will help you decide how hot, cold, wet, or windy it might be!

Date:

Astronomy

Jun. 01, 2013 Rise Set
Actual Time 6:34 AM CDT 8:32 PM CDT
Civil Twilight 6:07 AM CDT 9:00 PM CDT
Nautical Twilight 5:34 AM CDT 9:33 PM CDT
Astronomical Twilight 4:59 AM CDT 10:08 PM CDT
Moon 2:04 AM CDT (6/1) 2:28 PM CDT (6/1)
Length of Visible Light 14h 52m
Length of Day
13h 58m
Last Quarter, 40% of the Moon is Illuminated
Jun 1
Last Quarter
Jun 8
New
Jun 16
First Quarter
Jun 23
Full
Jun 29
Last Quarter

Hourly Weather History & Observations

Time (CDT) Temp. Heat Index Dew Point Humidity Pressure Visibility Wind Dir Wind Speed Gust Speed Precip Events Conditions
12:15 AM 77.2 °F - 71.6 °F 83% 29.82 in 10.0 mi South 13.8 mph 20.7 mph N/A   Overcast
12:35 AM 77.2 °F - 71.6 °F 83% 29.83 in 10.0 mi South 6.9 mph 23.0 mph N/A   Overcast
12:55 AM 77.0 °F - 71.2 °F 82% 29.83 in 10.0 mi South 9.2 mph 18.4 mph N/A   Overcast
1:15 AM 76.1 °F - 70.5 °F 83% 29.83 in 10.0 mi South 17.3 mph 21.9 mph N/A   Overcast
1:35 AM 75.6 °F - 70.0 °F 83% 29.83 in 10.0 mi South 13.8 mph 23.0 mph N/A   Overcast
1:55 AM 75.2 °F - 70.0 °F 84% 29.83 in 10.0 mi South 13.8 mph 17.3 mph N/A   Overcast
2:15 AM 75.2 °F - 70.2 °F 84% 29.83 in 10.0 mi South 16.1 mph 20.7 mph N/A   Overcast
2:35 AM 75.2 °F - 70.0 °F 84% 29.83 in 10.0 mi South 10.4 mph - N/A   Overcast
2:55 AM 75.0 °F - 70.0 °F 84% 29.82 in 10.0 mi South 13.8 mph 17.3 mph N/A   Overcast
3:15 AM 74.3 °F - 69.3 °F 84% 29.83 in 10.0 mi South 8.1 mph - N/A   Mostly Cloudy
3:35 AM 73.4 °F - 68.9 °F 86% 29.83 in 10.0 mi South 6.9 mph - N/A   Scattered Clouds
3:55 AM 73.4 °F - 68.5 °F 85% 29.83 in 10.0 mi South 10.4 mph - N/A   Mostly Cloudy
4:15 AM 73.4 °F - 68.4 °F 84% 29.83 in 10.0 mi South 10.4 mph - N/A   Overcast
4:35 AM 73.4 °F - 68.2 °F 84% 29.83 in 10.0 mi South 12.7 mph 17.3 mph N/A   Overcast
4:55 AM 73.4 °F - 68.0 °F 83% 29.83 in 10.0 mi South 9.2 mph 16.1 mph N/A   Overcast
5:15 AM 73.0 °F - 68.0 °F 84% 29.84 in 10.0 mi South 12.7 mph - N/A   Mostly Cloudy
5:35 AM 73.0 °F - 68.0 °F 84% 29.84 in 10.0 mi South 12.7 mph - N/A   Mostly Cloudy
5:55 AM 73.4 °F - 68.0 °F 83% 29.84 in 10.0 mi South 15.0 mph - N/A   Overcast
6:15 AM 73.4 °F - 68.0 °F 83% 29.84 in 10.0 mi South 11.5 mph - N/A   Overcast
6:35 AM 72.9 °F - 67.8 °F 84% 29.84 in 10.0 mi South 11.5 mph - N/A   Mostly Cloudy
6:55 AM 73.0 °F - 68.0 °F 84% 29.85 in 10.0 mi South 10.4 mph - N/A   Mostly Cloudy
7:15 AM 73.4 °F - 68.0 °F 83% 29.85 in 10.0 mi South 11.5 mph - N/A   Mostly Cloudy
7:35 AM 73.8 °F - 68.0 °F 82% 29.86 in 10.0 mi South 15.0 mph 20.7 mph N/A   Overcast
7:55 AM 74.1 °F - 68.0 °F 81% 29.86 in 10.0 mi South 10.4 mph - N/A   Mostly Cloudy
8:15 AM 74.8 °F - 68.2 °F 80% 29.87 in 10.0 mi South 16.1 mph - N/A   Overcast
8:35 AM 75.4 °F - 68.2 °F 78% 29.87 in 10.0 mi South 12.7 mph 19.6 mph N/A   Overcast
8:55 AM 76.1 °F - 68.0 °F 76% 29.87 in 10.0 mi South 18.4 mph 24.2 mph N/A   Overcast
9:15 AM 76.5 °F - 68.0 °F 75% 29.87 in 10.0 mi SSW 15.0 mph 21.9 mph N/A   Overcast
9:35 AM 76.8 °F - 68.4 °F 75% 29.87 in 10.0 mi South 15.0 mph 25.3 mph N/A   Overcast
9:55 AM 77.7 °F - 68.4 °F 73% 29.87 in 10.0 mi South 16.1 mph 23.0 mph N/A   Overcast
10:15 AM 77.9 °F - 68.7 °F 73% 29.87 in 10.0 mi South 17.3 mph 25.3 mph N/A   Overcast
10:35 AM 78.3 °F - 69.3 °F 74% 29.87 in 10.0 mi SSW 13.8 mph 17.3 mph N/A   Overcast
10:55 AM 79.0 °F - 69.4 °F 72% 29.88 in 10.0 mi South 17.3 mph 23.0 mph N/A   Overcast
11:15 AM 79.3 °F - 69.6 °F 72% 29.88 in 10.0 mi SSW 15.0 mph 26.5 mph N/A   Overcast
11:35 AM 81.1 °F 84.5 °F 69.8 °F 68% 29.88 in 10.0 mi SW 17.3 mph 24.2 mph N/A   Overcast
11:55 AM 81.9 °F 85.6 °F 70.0 °F 67% 29.88 in 10.0 mi South 15.0 mph 23.0 mph N/A   Overcast
12:15 PM 84.0 °F 88.4 °F 70.0 °F 63% 29.88 in 10.0 mi SSW 16.1 mph 23.0 mph N/A   Mostly Cloudy
12:35 PM 84.2 °F 88.7 °F 70.3 °F 63% 29.89 in 10.0 mi SSW 8.1 mph 18.4 mph N/A   Scattered Clouds
12:55 PM 84.9 °F 89.1 °F 69.8 °F 60% 29.90 in 10.0 mi SW 11.5 mph 16.1 mph N/A   Scattered Clouds
1:15 PM 85.6 °F 90.1 °F 69.8 °F 59% 29.90 in 10.0 mi SW 5.8 mph - N/A   Mostly Cloudy
1:35 PM 85.3 °F 89.8 °F 69.8 °F 60% 29.90 in 10.0 mi West 5.8 mph - N/A   Mostly Cloudy
1:55 PM 88.2 °F 93.3 °F 70.0 °F 55% 29.90 in 10.0 mi South 6.9 mph - N/A   Mostly Cloudy
2:15 PM 88.3 °F 93.2 °F 69.6 °F 54% 29.89 in 10.0 mi SW 5.8 mph - N/A   Scattered Clouds
2:35 PM 88.9 °F 93.4 °F 69.1 °F 52% 29.89 in 10.0 mi South 6.9 mph - N/A   Mostly Cloudy
2:55 PM 89.2 °F 93.6 °F 69.1 °F 51% 29.88 in 10.0 mi South 8.1 mph - N/A   Mostly Cloudy
3:15 PM 88.5 °F 92.3 °F 68.4 °F 51% 29.88 in 10.0 mi SSW 5.8 mph - N/A   Mostly Cloudy
3:35 PM 89.4 °F 92.7 °F 67.3 °F 48% 29.87 in 10.0 mi South 8.1 mph - N/A   Mostly Cloudy
3:55 PM 90.9 °F 93.5 °F 66.4 °F 44% 29.87 in 10.0 mi SW 3.5 mph - N/A   Mostly Cloudy
4:15 PM 91.8 °F 94.6 °F 66.6 °F 43% 29.87 in 10.0 mi SSE 4.6 mph - N/A   Scattered Clouds
4:35 PM 91.8 °F 96.0 °F 68.0 °F 46% 29.87 in 10.0 mi ESE 3.5 mph - N/A   Scattered Clouds
4:55 PM 91.0 °F 93.8 °F 66.6 °F 44% 29.86 in 10.0 mi SSE 4.6 mph - N/A   Mostly Cloudy
5:15 PM 92.1 °F 96.7 °F 68.5 °F 46% 29.86 in 10.0 mi South 5.8 mph - N/A   Mostly Cloudy
5:35 PM 90.1 °F 94.4 °F 68.9 °F 49% 29.86 in 10.0 mi SE 6.9 mph - N/A   Scattered Clouds
5:55 PM 91.0 °F 95.2 °F 68.4 °F 47% 29.85 in 10.0 mi East 3.5 mph - N/A   Scattered Clouds
6:15 PM 89.6 °F 93.4 °F 68.2 °F 49% 29.85 in 10.0 mi SE 4.6 mph - N/A   Mostly Cloudy
6:35 PM 89.6 °F 93.9 °F 68.5 °F 50% 29.86 in 10.0 mi ESE 4.6 mph - N/A   Mostly Cloudy
6:55 PM 89.1 °F 93.3 °F 68.5 °F 51% 29.86 in 10.0 mi SE 6.9 mph - N/A   Overcast
7:15 PM 88.5 °F 92.7 °F 68.7 °F 52% 29.86 in 10.0 mi ESE 8.1 mph - N/A   Mostly Cloudy
7:35 PM 87.1 °F 90.9 °F 68.4 °F 54% 29.87 in 10.0 mi SE 4.6 mph - N/A   Scattered Clouds
7:55 PM 86.2 °F 89.7 °F 68.2 °F 55% 29.87 in 10.0 mi SE 5.8 mph - N/A   Clear
8:15 PM 85.3 °F 88.5 °F 68.0 °F 56% 29.88 in 10.0 mi SE 3.5 mph - N/A   Clear
8:35 PM 84.4 °F 87.6 °F 68.4 °F 58% 29.88 in 10.0 mi SSE 5.8 mph - N/A   Clear
8:55 PM 83.5 °F 86.7 °F 68.4 °F 60% 29.90 in 10.0 mi Calm Calm - N/A   Clear
9:15 PM 82.6 °F 85.9 °F 68.9 °F 63% 29.91 in 10.0 mi Calm Calm - N/A   Clear
9:35 PM 81.7 °F 84.9 °F 68.9 °F 65% 29.91 in 10.0 mi Calm Calm - N/A   Clear
9:55 PM 81.3 °F 84.5 °F 68.9 °F 66% 29.91 in 10.0 mi Calm Calm - N/A   Clear
10:15 PM 80.4 °F 83.4 °F 69.1 °F 68% 29.92 in 10.0 mi South 4.6 mph - N/A   Clear
10:35 PM 80.8 °F 84.1 °F 69.6 °F 69% 29.91 in 10.0 mi South 5.8 mph - N/A   Clear
10:55 PM 81.5 °F 84.8 °F 69.3 °F 66% 29.93 in 10.0 mi Calm Calm - N/A   Clear
11:15 PM 81.1 °F 84.5 °F 69.8 °F 68% 29.95 in 10.0 mi East 3.5 mph - N/A   Clear
11:35 PM 80.2 °F 83.6 °F 70.3 °F 72% 29.95 in 10.0 mi SSE 6.9 mph - N/A   Clear
11:55 PM 79.7 °F - 70.7 °F 74% 29.97 in 10.0 mi South 3.5 mph - N/A   Scattered Clouds